{"data":{"norad_id":63435,"intl_designator":"2025-069C","name":"STARLINK-33733","alt_names":[],"object_type":"PAYLOAD","status":"ACTIVE","operator":null,"country":"US","launch_date":"2025-04-04","launch_site_code":"AFWTR","launch_vehicle":null,"mission":null,"orbit_class":"UNKNOWN","rcs_meters":null,"size_class":null,"mass_kg":null,"dimensions":null,"purposes":["comms"],"wikipedia_slug":null,"has_3d_model":false,"image_url":null,"decayed_at":null,"tle_current":{"epoch":"2026-05-25T03:19:28.718976Z","epoch_age_seconds":63387,"freshness":"FRESH","line1":"1 63435U 25069C   26145.13852684  .00253825  00000+0  56717-2 0  9990","line2":"2 63435  53.1577 144.9494 0001415 120.7378 239.3767 15.42052583 65143","mean_motion":15.42052583,"eccentricity":0.0001415,"inclination_deg":53.1577,"raan_deg":144.9494,"arg_perigee_deg":120.7378,"mean_anomaly_deg":239.3767,"bstar":0.0056717,"rev_number":6514,"period_min":93.382029632124,"perigee_km":439.08749122251,"apogee_km":441.01703878451,"semimajor_km":6818.1892650035,"source":"CELESTRAK","updated_at":"2026-05-25T13:38:19.997342Z"}}}